This is the latest recevied weather packets stored in our database for station/object N2WH. If no packets are shown the sender has not sent any weather packets the latest 10 day(s).
| Time | Temp. | Humidity | Pressure | Rain* | Wind** | Luminosity | Snow |
|---|---|---|---|---|---|---|---|
| 1777592973 | 12.22° C | 66% | 1008.8 hPa | 0 mm | - | 2 W/m² | - |
| 1777592668 | 12.22° C | 66% | 1008.9 hPa | 0 mm | - | 3 W/m² | - |
| 1777592364 | 12.22° C | 66% | 1009 hPa | 0 mm | - | 4 W/m² | - |
| 1777592059 | 12.78° C | 67% | 1009.1 hPa | 0 mm | - | 7 W/m² | - |
| 1777591757 | 12.78° C | 66% | 1008.9 hPa | 0 mm | - | 9 W/m² | - |
| 1777591453 | 12.78° C | 66% | 1009 hPa | 0 mm | - | 10 W/m² | - |
| 1777591149 | 12.78° C | 66% | 1008.8 hPa | 0 mm | - | 12 W/m² | - |
| 1777590843 | 12.78° C | 64% | 1008.8 hPa | 0 mm | - | 13 W/m² | - |
| 1777590540 | 13.33° C | 65% | 1008.7 hPa | 0 mm | - | 16 W/m² | - |
| 1777590236 | 13.33° C | 65% | 1008.7 hPa | 0 mm | - | 17 W/m² | - |
| 1777589934 | 13.33° C | 63% | 1008.5 hPa | 0 mm | - | 22 W/m² | - |
| 1777589630 | 13.33° C | 62% | 1008.5 hPa | 0 mm | - | 20 W/m² | - |
| 1777589327 | 13.33° C | 64% | 1008.7 hPa | 0 mm | - | 22 W/m² | - |
| 1777589024 | 13.89° C | 64% | 1008.6 hPa | 0 mm | - | 23 W/m² | - |
| 1777588720 | 13.89° C | 63% | 1008.5 hPa | 0 mm | - | 25 W/m² | - |
| 1777588416 | 13.89° C | 63% | 1008.5 hPa | 0 mm | - | 26 W/m² | - |
| 1777588106 | 13.89° C | 63% | 1008.6 hPa | 0 mm | - | 27 W/m² | - |
| 1777587802 | 13.89° C | 62% | 1008.4 hPa | 0 mm | - | 29 W/m² | - |
| 1777587501 | 13.89° C | 64% | 1008.6 hPa | 0 mm | - | 31 W/m² | - |
| 1777587198 | 13.89° C | 64% | 1008.6 hPa | 0 mm | - | 33 W/m² | - |
| 1777586893 | 13.89° C | 64% | 1008.4 hPa | 0 mm | - | 41 W/m² | - |
| 1777586589 | 13.89° C | 64% | 1008.6 hPa | 0 mm | - | 58 W/m² | - |
| 1777586285 | 13.89° C | 63% | 1008.7 hPa | 0 mm | - | 70 W/m² | - |
| 1777585983 | 13.89° C | 66% | 1008.7 hPa | 0 mm | - | 69 W/m² | - |
| 1777585677 | 13.89° C | 65% | 1008.4 hPa | 0 mm | - | 64 W/m² | - |
* Rain latest hour (hover to see other rain measurements)
** Current wind speed in m/s (hover to see current wind gust speed)